Retour au catalogue

IPM 2/BREEZE-M

ActifScienceGEO
NORAD 47242·PAYLOAD·🇷🇺 Russia

Lancé Dec 14, 2020 depuis Plesetsk Cosmodrome

Loading…

TLE

FraisSource: Space-Track

Époque: Sep 13, 2026, 15:07 UTC

1 47242U 20097A   26256.62995771 -.00000096  00000-0  00000-0 0  9990
2 47242   5.5933  75.6017 0083365 282.1180  77.2099  0.95297799 20114

Suivez IPM 2/BREEZE-M en temps réel avec AllMySat

Download on the App Store